COSMOS 2499 DEB, 49925

Orbit data source: Space-Track

COSMOS 2499 DEB, 49925 is space debris in LEO originally from a launch on Fri, 23 May 2014 UTC launched from the Plesetsk Missile And Space Complex (PKMTR). Debris objects in space refer to the collection of defunct objects orbiting the Earth. Examples of debris include non-operational satellites, rocket bodies, and fragments generated from explosions, collisions, or faulty payload assembly.

Loading next visibility...
Identifier
49925, 2014-028G
Orbit
LEO
Country
Flag of CISCIS
Related business
Manufacturer
TsNIIKhM
Mission
Spacecraft
Bus & Motor
Unknown
Mass
Unknown
Launch date (UTC)
2014-05-23 (12 years ago)
Launch vehicle
Unknown
Launch site
Plesetsk Missile And Space Complex (PKMTR)
Object type
Payload
Rocket body
Debris
Shape & HBR
Unknown shape, 0.1 m
Radar Cross Section
Small (<0.1 m²)

Expand to show TLE details & history
Last TLE update: 3 months ago

TLE from 3 months ago
0 COSMOS 2499 DEB
1 49925U 14028G   25273.66786665  .00025906  00000-0  56894-1 0  9998
2 49925  82.5128  46.7719 0306957 156.6975 204.8410 13.12263203185668
Epoch: 2025-09-30T16:01Z
TLE epoch observation values (Epoch: 2025-09-30T16:01:43.678Z)
Latitude
0.00004°
Longitude
156.68598°
Altitude
1,429.969 km
Speed
7.045 km/s
True Right ascension
03h 07m 05s
True Declination
0° 00' 00"
Sunlit
Object was in full shadow at epoch
Visualization orbit readout
Latitude
Unknown
Longitude
Unknown
Altitude
Unknown
Speed
Unknown
Apparent Right ascension
Unknown
Apparent Declination
Unknown
Sunlit
N/A
Visualization observer readout
Local Sidereal Time
20:23:57
Azimuth
Unknown
Elevation
Unknown
Doppler factor
Unknown
Orbital elements
Apogee altitude
1,444.64 km
Perigee altitude
978.691 km
Semi-major axis
7,589.803 km
Eccentricity
0.0307
Inclination
82.5128°
RAAN
46.7719°
Arg. of periapsis
156.6975°
True anomaly
203.41324°
Mean anomaly
204.841°
Eccentric anomaly
204.12223°
Mean motion
3.28244 °/min
Orbital period
109.67 mins
BSTAR
0.056894
Loading maneuver chart data...
Computing Atmospheric mass density...
Loading historical data...
Loading historical data...
Loading historical data...
Loading historical data...
Loading historical data...
Loading historical data...
Loading historical data...

Documentation

Showing up to 5 results
|